User: anonymous   Login
Location: Unspecified
(0.0000°N, 0.0000°E)
Time: 23:45:09
(UTC+00:00)
Language:

ATS 1 - Orbit

View from above orbital plane
View from above orbital plane
View from above satellite
View from above satellite

Ground track
Ground track

The orbit data is extracted from the following two-line orbital elements,

1 02608U 66110A   17349.60435821 -.00000177  00000-0  00000+0 0  9998
2 02608   2.5160 299.1407 0007303 288.1523 226.4334  1.00297546103637
Epoch (UTC): 15 December 2017 14:30:16
Eccentricity: 0.0007303
inclination: 2.5160°
perigee height: 35748 km
apogee height: 35810 km
right ascension of ascending node: 299.1407°
argument of perigee: 288.1523°
revolutions per day: 1.00297546
mean anomaly at epoch: 226.4334°
orbit number at epoch: 10363

The dashed part of the orbit path shows where the satellite is in the earth's shadow,  

DLR